Regional Weather Roundup
Issued by NWS Jackson, KY

Home | Current Version | Previous Version | Graphics & Text | Print | Product List | Glossary On
Versions: 1 2 3 4 5 6 7 8 9 10 11 12 13 14 15 16 17 18 19 20 21 22 23 24 25 26 27
000
ASUS43 KJKL 230510
RWRJKL

EAST KENTUCKY HOURLY WEATHER ROUNDUP
NATIONAL WEATHER SERVICE JACKSON KY
100 AM EDT SAT JUL 23 2016

NOTE: "FAIR" INDICATES FEW OR NO CLOUDS BELOW 12,000 FEET WITH
NO SIGNIFICANT WEATHER AND/OR OBSTRUCTIONS TO VISIBILITY.

* THESE REPORTS ARE NOT UNDER NWS QUALITY CONTROL AND MAY NOT
  REPORT WEATHER SUCH AS PRECIPITATION AND FOG.

KYZ079-080-083-085-087-088-110-112-115-119-120-230600
...EASTERN KENTUCKY...

CITY           SKY/WX    TMP DP  RH WIND       PRES   REMARKS
JACKSON        CLEAR     71  69  93 CALM      30.08F
LONDON         CLOUDY    74  70  87 CALM      30.07S
SOMERSET*      MOCLDY    70  70 100 CALM      30.07F FOG
MONTICELLO*    CLOUDY   N/A N/A N/A W8        30.07F HAZE
WILLIAMSBURG*  CLOUDY    72  72 100 CALM      30.08S
MIDDLESBORO*   CLOUDY    76  73  90 CALM      30.07F
HARLAN APT*      N/A     75  72  88 CALM      30.10S
PIKE CO APT*     N/A     72  71  98 CALM      30.09S
MOREHEAD APT*  FOG       72  70  94 CALM      30.09S VSB<1/4
ASHLAND*       CLOUDY    72  70  94 CALM      30.03F VSB 1/2
$$

KYZ035-036-041-042-044-050-067-078-099-230600
...CENTRAL KENTUCKY...

CITY           SKY/WX    TMP DP  RH WIND       PRES   REMARKS
MT STERLING*   PTCLDY    70  70 100 CALM      30.08S
FLEMING/MASON* PTCLDY    70  69  99 CALM      30.08S FOG
DANVILLE*      CLOUDY    72  70  94 CALM      30.07S
RICHMOND*      CLOUDY    72  70  94 CALM      30.06S
LEXINGTON      CLEAR     74  70  87 CALM      30.06S
FRANKFORT      CLEAR     75  70  84 SW3       30.04S
LOUISVILLE     MOCLDY    78  70  76 SW5       30.02F
LEBANON*         N/A     73  72  94 CALM      30.06S
GLASGOW*       CLOUDY    73  73 100 CALM      30.03F
BOWLING GREEN  CLOUDY    76  74  93 E3        30.02F
$$

KYZ091>093-OHZ055-061-077-WVZ005-015-034-035-042-230600
...SOUTHERN OHIO/WEST VIRGINIA...

CITY           SKY/WX    TMP DP  RH WIND       PRES   REMARKS
COVINGTON      CLEAR     75  71  87 CALM      30.05F
COLUMBUS       CLEAR     74  70  87 SE6       30.02S
DAYTON         PTCLDY    75  71  87 SW7       30.05S
WILMINGTON     CLEAR     72  70  93 SW6       30.04F
HUNTINGTON     FOG       70  68  93 SW5       30.05F VSB 3/4
CHARLESTON       N/A     71  68  90 S5        30.07R
PINEVILLE*       N/A     71  67  89 MISG      30.15S FOG
BECKLEY          N/A     70  67  90 CALM      30.15R
BLUEFIELD        N/A     67  64  90 SW5       30.17S
LOGAN CO APT*  FOG       72  70  94 CALM      30.10R VSB 3/4
$$

VAZ002-007-008-TNZ017-027-036-066-071-230600
...SOUTHWEST VIRGINIA/EAST TENNESSEE...

CITY           SKY/WX    TMP DP  RH WIND       PRES   REMARKS
WISE*            N/A     73  59  60 CALM      30.17S
JONESVILLE*      N/A     75  73  94 CALM      30.10S
ABINGDON*        N/A     74  67  80 CALM      30.12S
BRISTOL        CLOUDY    76  68  76 CALM      30.08R
MORRISTOWN*    PTCLDY    77  72  83 CALM      30.06S
SEVIERVILLE*   PTCLDY    79  70  73 CALM      30.05R
KNOXVILLE      CLOUDY    83  70  64 SW7       30.04S
OAK RIDGE      LGT RAIN  82  72  71 CALM      30.06S
CROSSVILLE     CLOUDY    75  73  93 CALM      30.11F
NASHVILLE      MOCLDY    77  70  79 NW3       30.03F
$$

...KEY TO REMARKS...
VSB - VISIBILITY IN MILES
WCI - WIND CHILL INDEX
HX  - HEAT INDEX

$$




USA.gov is the U.S. government's official web portal to all federal, state and local government web resources and services.